Farmville, Virginia, United States (23901)
Lat: 37.30N, Lon: 78.39W
Wx Zone: VAZ060
Local Info
Past Weather Observations for Yesterday

NOTE: This archive is for the closest National Weather Service station to Farmville. Information may differ from the station used for current weather conditions.

Click here for Long-term Archive

Time Weather Temperature Dewpoint Humidity Pressure Winds Precip Visibility
22:55
Clear
55°F / 13°C 48°F / 9°C 77% 30.18 in
(1022 mb)
Calm - 10SM
22:35
Clear
57°F / 14°C 48°F / 9°C 72% 30.18 in
(1022 mb)
Calm - 10SM
22:15
Clear
55°F / 13°C 48°F / 9°C 77% 30.18 in
(1022 mb)
Calm - 10SM
21:55
Clear
55°F / 13°C 46°F / 8°C 72% 30.18 in
(1022 mb)
Calm - 10SM
21:35
Clear
57°F / 14°C 46°F / 8°C 67% 30.18 in
(1022 mb)
Calm - 10SM
21:15
Clear
59°F / 15°C 46°F / 8°C 63% 30.18 in
(1022 mb)
Calm - 10SM
20:55
Clear
59°F / 15°C 46°F / 8°C 63% 30.15 in
(1021 mb)
Calm - 10SM
20:35
Clear
59°F / 15°C 46°F / 8°C 63% 30.15 in
(1021 mb)
Calm - 10SM
20:15
Clear
66°F / 19°C 45°F / 7°C 46% 30.15 in
(1021 mb)
Calm - 10SM
19:55
Clear
61°F / 16°C 46°F / 8°C 59% 30.15 in
(1021 mb)
Calm - 10SM
19:35
Clear
68°F / 20°C 43°F / 6°C 40% 30.15 in
(1021 mb)
Calm - 10SM
19:15
Clear
66°F / 19°C 45°F / 7°C 46% 30.12 in
(1020 mb)
Calm - 10SM
18:55
Clear
70°F / 21°C 43°F / 6°C 38% 30.12 in
(1020 mb)
Calm - 10SM
18:35
Clear
72°F / 22°C 41°F / 5°C 33% 30.12 in
(1020 mb)
SW 3.5 mph
(SW 6 kph)
- 10SM
18:15
Clear
73°F / 23°C 41°F / 5°C 31% 30.12 in
(1020 mb)
SW 3.5 mph
(SW 6 kph)
- 10SM
17:55
Clear
75°F / 24°C 39°F / 4°C 27% 30.12 in
(1020 mb)
SW 3.5 mph
(SW 6 kph)
- 10SM
17:35
Mostly Cloudy
77°F / 25°C 39°F / 4°C 26% 30.12 in
(1020 mb)
SW 5.8 mph
(SW 9 kph)
- 10SM
17:15
Mostly Cloudy
79°F / 26°C 37°F / 3°C 23% 30.12 in
(1020 mb)
S 3.5 mph
(S 6 kph)
- 10SM
16:55
Clear
81°F / 27°C 39°F / 4°C 23% 30.12 in
(1020 mb)
SSE 3.5 mph
(SSE 6 kph)
- 10SM
16:35
Clear
77°F / 25°C 41°F / 5°C 28% 30.12 in
(1020 mb)
Calm - 10SM
16:15
Clear
77°F / 25°C 41°F / 5°C 28% 30.12 in
(1020 mb)
SW 4.6 mph
(SW 7 kph)
- 10SM
15:55
Partly Cloudy
79°F / 26°C 41°F / 5°C 26% 30.12 in
(1020 mb)
Calm - 10SM
15:35
Mostly Cloudy
81°F / 27°C 39°F / 4°C 23% 30.12 in
(1020 mb)
E 3.5 mph
(E 6 kph)
- 10SM
15:15
Mostly Cloudy
79°F / 26°C 37°F / 3°C 23% 30.12 in
(1020 mb)
S 6.9 mph
(S 11 kph)
- 10SM
14:55
Overcast
81°F / 27°C 39°F / 4°C 23% 30.12 in
(1020 mb)
S 9.2 mph
(S 15 kph)
- 10SM
14:35
Overcast
81°F / 27°C 37°F / 3°C 21% 30.12 in
(1020 mb)
SSE 3.5 mph
(SSE 6 kph)
- 10SM
14:15
Overcast
81°F / 27°C 37°F / 3°C 21% 30.12 in
(1020 mb)
Calm - 10SM
13:55
Overcast
79°F / 26°C 39°F / 4°C 24% 30.12 in
(1020 mb)
Calm - 10SM
13:35
Mostly Cloudy
77°F / 25°C 39°F / 4°C 26% 30.15 in
(1021 mb)
S 3.5 mph
(S 6 kph)
- 10SM
13:15
Clear
79°F / 26°C 37°F / 3°C 23% 30.15 in
(1021 mb)
S 4.6 mph
(S 7 kph)
- 10SM
12:55
Partly Cloudy
79°F / 26°C 37°F / 3°C 23% 30.15 in
(1021 mb)
SW 5.8 mph
(SW 9 kph)
- 10SM
12:35
Partly Cloudy
81°F / 27°C 36°F / 2°C 20% 30.15 in
(1021 mb)
S 3.5 mph
(S 6 kph)
- 10SM
12:15
Mostly Cloudy
77°F / 25°C 37°F / 3°C 24% 30.15 in
(1021 mb)
Calm - 10SM
11:55
Overcast
77°F / 25°C 39°F / 4°C 26% 30.15 in
(1021 mb)
N 3.5 mph
(N 6 kph)
- 10SM
11:35
Mostly Cloudy
79°F / 26°C 39°F / 4°C 24% 30.15 in
(1021 mb)
S 6.9 mph
(S 11 kph)
- 10SM
11:15
Mostly Cloudy
77°F / 25°C 39°F / 4°C 26% 30.15 in
(1021 mb)
Calm - 10SM
10:55
Overcast
75°F / 24°C 39°F / 4°C 27% 30.15 in
(1021 mb)
SSW 3.5 mph
(SSW 6 kph)
- 10SM
10:35
Overcast
75°F / 24°C 37°F / 3°C 25% 30.15 in
(1021 mb)
WNW 3.5 mph
(WNW 6 kph)
- 10SM
10:15
Partly Cloudy
77°F / 25°C 37°F / 3°C 24% 30.15 in
(1021 mb)
SW 8.1 mph
(SW 13 kph)
- 10SM
09:55
Clear
77°F / 25°C 41°F / 5°C 28% 30.15 in
(1021 mb)
W 3.5 mph
(W 6 kph)
- 10SM
09:35
Clear
75°F / 24°C 52°F / 11°C 44% 30.15 in
(1021 mb)
SSE 3.5 mph
(SSE 6 kph)
- 10SM
09:15
Clear
72°F / 22°C 50°F / 10°C 47% 30.15 in
(1021 mb)
Calm - 10SM
08:55
Clear
70°F / 21°C 52°F / 11°C 53% 30.15 in
(1021 mb)
S 3.5 mph
(S 6 kph)
- 10SM
08:35
Clear
66°F / 19°C 52°F / 11°C 60% 30.15 in
(1021 mb)
SW 3.5 mph
(SW 6 kph)
- 10SM
08:15
Clear
64°F / 18°C 52°F / 11°C 64% 30.15 in
(1021 mb)
SW 3.5 mph
(SW 6 kph)
- 10SM
07:55
Partly Cloudy
61°F / 16°C 50°F / 10°C 68% 30.15 in
(1021 mb)
SSE 3.5 mph
(SSE 6 kph)
- 10SM
07:35
Partly Cloudy
57°F / 14°C 54°F / 12°C 88% 30.15 in
(1021 mb)
Calm - 10SM
07:15
Mostly Cloudy
55°F / 13°C 52°F / 11°C 88% 30.15 in
(1021 mb)
Calm - 10SM
06:55
Partly Cloudy
54°F / 12°C 52°F / 11°C 94% 30.15 in
(1021 mb)
SSE 3.5 mph
(SSE 6 kph)
- 10SM
06:35
Partly Cloudy
52°F / 11°C 52°F / 11°C 100% 30.12 in
(1020 mb)
Calm - 10SM
06:15
Clear
50°F / 10°C 50°F / 10°C 100% 30.12 in
(1020 mb)
Calm - 10SM
05:55
Partly Cloudy
50°F / 10°C 50°F / 10°C 100% 30.12 in
(1020 mb)
SSE 3.5 mph
(SSE 6 kph)
- 10SM
05:35
Mostly Cloudy
48°F / 9°C 48°F / 9°C 100% 30.12 in
(1020 mb)
NE 3.5 mph
(NE 6 kph)
- 10SM
05:15
Overcast
50°F / 10°C 50°F / 10°C 100% 30.09 in
(1019 mb)
Calm - 10SM
04:55
Overcast
50°F / 10°C 50°F / 10°C 100% 30.09 in
(1019 mb)
Calm - 10SM
04:35
Overcast
50°F / 10°C 50°F / 10°C 100% 30.09 in
(1019 mb)
SSE 3.5 mph
(SSE 6 kph)
- 10SM
04:15
Overcast
50°F / 10°C 50°F / 10°C 100% 30.09 in
(1019 mb)
S 3.5 mph
(S 6 kph)
- 10SM
03:55
Overcast
48°F / 9°C 48°F / 9°C 100% 30.09 in
(1019 mb)
SSW 3.5 mph
(SSW 6 kph)
- 10SM
03:35
Overcast
48°F / 9°C 48°F / 9°C 100% 30.09 in
(1019 mb)
Calm - 10SM
03:15
Overcast
48°F / 9°C 48°F / 9°C 100% 30.09 in
(1019 mb)
Calm - 10SM
02:55
Overcast
48°F / 9°C 48°F / 9°C 100% 30.09 in
(1019 mb)
Calm - 10SM
02:35
Overcast
48°F / 9°C 48°F / 9°C 100% 30.09 in
(1019 mb)
SW 3.5 mph
(SW 6 kph)
- 10SM
02:15
Overcast
48°F / 9°C 48°F / 9°C 100% 30.09 in
(1019 mb)
Calm - 10SM
01:55
Overcast
48°F / 9°C 48°F / 9°C 100% 30.09 in
(1019 mb)
Calm - 10SM
01:35
Mostly Cloudy
46°F / 8°C 46°F / 8°C 100% 30.09 in
(1019 mb)
Calm - 10SM
01:15
Mostly Cloudy
46°F / 8°C 46°F / 8°C 100% 30.09 in
(1019 mb)
Calm - 10SM
00:55
Mostly Cloudy
46°F / 8°C 46°F / 8°C 100% 30.09 in
(1019 mb)
Calm - 10SM
00:35
Partly Cloudy
46°F / 8°C 46°F / 8°C 100% 30.09 in
(1019 mb)
Calm - 10SM
00:15
Clear
48°F / 9°C 48°F / 9°C 100% 30.09 in
(1019 mb)
Calm - 10SM
Time Weather Temperature Dewpoint Humidity Pressure Winds Precip Visibility


Weather for websites

WeatherForYou.com, LLC is not responsible for any damages or problems caused by this service. Current weather conditions are obtained from the closest station including government and personal stations which may have varying degrees of accuracy. Weather forecasts are derived from the NOAA NDFD. Like all things, this site belongs to Jesus Christ... He just trusts us to maintain it. If you have any questions or comments email webmaster@weatherforyou.com

Copyright © 2015, WeatherForYou.com LLC. All rights reserved.